Location: The Saddle
(36.8333°N, 80.3417°W)
Time: 00:38:09
(UTC-04:00)

Vanguard 3 - All Passes

Search period start: 16 May 2026 00:00
Search period end: 26 May 2026 00:00
Orbit: 507 x 3205 km, 33.4° (Epoch: 15 May)

Date Brightness Start Highest point End Pass type
(mag) Time Alt. Az. Time Alt. Az. Time Alt. Az.
16 May - 11:06:44 10° S 11:16:47 21° SE 11:28:46 10° E daylight
16 May - 13:13:43 10° SW 13:29:37 52° SSE 13:47:50 10° E daylight
16 May - 15:26:07 10° WSW 15:45:12 76° SSE 16:02:38 10° E daylight
16 May - 17:41:41 10° W 18:01:24 76° S 18:15:29 10° ESE daylight
16 May - 19:58:54 10° W 20:15:25 49° SSW 20:25:55 10° SE daylight
16 May - 22:19:28 10° W 22:26:02 15° SW 22:31:15 10° SSW visible
17 May - 11:52:46 10° SSW 12:05:48 35° SE 12:22:07 10° E daylight
17 May - 14:02:43 10° SW 14:19:56 66° SSE 14:38:41 10° E daylight
17 May - 16:16:37 10° W 16:36:15 80° S 16:52:47 10° E daylight
17 May - 18:32:52 10° W 18:51:53 66° SSW 19:04:48 10° ESE daylight
17 May - 20:50:52 10° W 21:04:26 32° SW 21:13:35 10° SSE visible
18 May - 10:34:05 10° S 10:43:04 20° SE 10:54:07 10° E daylight
18 May - 12:40:37 10° SW 12:55:22 51° SSE 13:13:47 10° E daylight
18 May - 14:52:29 10° WSW 15:10:45 76° SSE 15:29:13 10° E daylight
18 May - 17:07:27 10° W 17:27:14 77° S 17:42:40 10° ESE daylight
18 May - 19:24:15 10° W 19:41:47 51° SSW 19:53:30 10° SE daylight
18 May - 21:44:33 10° W 21:52:53 17° SW 21:59:23 10° SSW visible
19 May - 11:20:00 10° SSW 11:31:53 34° SE 11:47:40 10° E daylight
19 May - 13:29:30 10° SW 13:45:34 66° SSE 14:04:48 10° E daylight
19 May - 15:42:48 10° W 16:01:51 80° S 16:19:34 10° E daylight
19 May - 17:58:28 10° W 18:17:52 67° SSW 18:32:07 10° ESE daylight
19 May - 20:16:10 10° W 20:30:58 34° SW 20:41:17 10° SSE daylight
20 May - 10:01:40 10° SSE 10:09:30 18° SE 10:19:19 10° E daylight
20 May - 12:07:44 10° SW 12:21:16 50° SSE 12:39:30 10° E daylight
20 May - 14:19:07 10° WSW 14:36:19 76° SSE 14:55:33 10° E daylight
20 May - 16:33:26 10° W 16:52:55 77° S 17:09:38 10° ESE daylight
20 May - 18:49:43 10° W 19:07:55 52° SSW 19:20:56 10° SE daylight
20 May - 21:09:39 10° W 21:19:34 19° SW 21:27:16 10° SSW visible
21 May - 10:47:25 10° SSW 10:58:07 33° SE 11:13:04 10° E daylight
21 May - 12:56:31 10° SW 13:11:19 66° SSE 13:30:42 10° E daylight
21 May - 15:09:14 10° W 15:27:24 80° S 15:46:06 10° E daylight
21 May - 17:24:16 10° W 17:43:40 67° SSW 17:59:15 10° ESE daylight
21 May - 19:41:30 10° W 19:57:18 36° SW 20:08:47 10° SSE daylight
22 May - 09:29:30 10° SSE 09:36:06 17° SE 09:44:24 10° E daylight
22 May - 11:35:05 10° SW 11:47:19 49° SSE 12:05:01 10° E daylight
22 May - 13:45:59 10° WSW 14:01:57 76° SSE 14:21:38 10° E daylight
22 May - 15:59:40 10° W 16:18:31 77° S 16:36:22 10° ESE daylight
22 May - 18:15:20 10° W 18:33:53 53° SSW 18:48:10 10° SE daylight
22 May - 20:34:49 10° W 20:46:04 21° SW 20:54:56 10° S visible
23 May - 10:15:02 10° SSW 10:24:34 31° SE 10:38:21 10° E daylight
23 May - 12:23:44 10° SW 12:37:13 65° SSE 12:56:22 10° E daylight
23 May - 14:35:55 10° W 14:52:58 80° S 15:12:24 10° E daylight
23 May - 16:50:17 10° W 17:09:21 67° SSW 17:26:07 10° ESE daylight
23 May - 19:06:59 10° W 19:23:26 37° SW 19:36:05 10° SSE daylight
24 May - 08:57:36 10° SSE 09:02:52 15° SE 09:09:24 10° E daylight
24 May - 11:02:35 10° SW 11:13:35 48° SSE 11:30:25 10° E daylight
24 May - 13:13:04 10° WSW 13:27:43 76° SSE 13:47:29 10° E daylight
24 May - 15:26:09 10° W 15:44:03 77° S 16:02:51 10° ESE daylight
24 May - 17:41:10 10° W 17:59:40 53° SSW 18:15:10 10° SE daylight
24 May - 20:00:07 10° W 20:12:23 22° SW 20:22:23 10° S daylight
25 May - 09:42:48 10° S 09:51:12 29° SE 10:03:37 10° E daylight
25 May - 11:51:09 10° SW 12:03:18 64° SSE 12:21:52 10° E daylight
25 May - 14:02:50 10° W 14:18:37 80° S 14:38:26 10° E daylight
25 May - 16:16:33 10° W 16:34:56 67° SSW 16:52:47 10° ESE daylight
25 May - 18:32:39 10° W 18:49:24 38° SW 19:03:11 10° SSE daylight
